Weather History for LIRK - October, 2012

Change the Weather History Date:

Monday, October 1, 2012

  Actual Average Record
Temperature  
Mean Temperature 50 °F -  
Max Temperature 52 °F 49 °F 59 °F (2006)
Min Temperature 47 °F 42 °F 30 °F (2005)
Degree Days  
Heating Degree Days 16    
Moisture  
Dew Point 47 °F    
Average Humidity 91    
Maximum Humidity 100    
Minimum Humidity 83    
Precipitation  
Precipitation 0.00 in - - ()
Sea Level Pressure  
Sea Level Pressure 30.23 in    
Wind  
Wind Speed 10 mph ()    
Max Wind Speed 16 mph    
Max Gust Speed -    
Visibility 0.5 miles    
Events Fog    
Averages and records for this station are not official NWS values.
T = Trace of Precipitation, MM = Missing Value Source: Averaged Metar Reports

Daily Weather History Graph

Daily Weather History Graph

Search for Another Location

Airport or City:

Trip Planner

Search our weather history database for the weather conditions in past years. The results will help you decide how hot, cold, wet, or windy it might be!

Date:

Astronomy

Oct. 01, 2012 Rise Set
Actual Time 7:05 AM CEST 6:49 PM CEST
Civil Twilight 6:37 AM CEST 7:17 PM CEST
Nautical Twilight 6:04 AM CEST 7:49 PM CEST
Astronomical Twilight 5:31 AM CEST 8:22 PM CEST
Moon 7:13 PM CEST (10/1) 8:20 AM CEST (10/1)
Length of Visible Light 12h 39m
Length of Day
11h 43m
Full, 98% of the Moon is Illuminated
Oct 1
Full
Oct 8
Last Quarter
Oct 15
New
Oct 22
First Quarter
Oct 29
Full

Hourly Weather History & Observations

Time (CEST) Temp. Dew Point Humidity Pressure Visibility Wind Dir Wind Speed Gust Speed Precip Events Conditions
12:55 AM 48.2 °F 44.6 °F 87% 30.24 in - North - - N/A   Scattered Clouds
1:55 AM 48.2 °F 44.6 °F 87% 30.24 in - North - - N/A   Scattered Clouds
2:00 AM 47 °F 44 °F 85%  in 12 mi WNW 11.5 mph - -  
2:55 AM 48.2 °F 46.4 °F 93% 30.24 in - North - - N/A   Scattered Clouds
3:55 AM 48.2 °F 46.4 °F 93% 30.24 in - North - - N/A   Scattered Clouds
4:55 AM 48.2 °F 46.4 °F 93% 30.24 in - North - - N/A   Scattered Clouds
6:55 AM 48.2 °F 48.2 °F 100% 30.24 in 0.0 mi North - - N/A Fog Fog
7:55 AM 48.2 °F 46.4 °F 93% 30.24 in 0.0 mi North - - N/A Fog Fog
8:00 AM 48 °F 47 °F 94%  in 0 mi WSW 13.8 mph - -  
8:55 AM 48.2 °F 46.4 °F 93% 30.24 in 0.0 mi North - - N/A Fog Fog
9:55 AM 48.2 °F 44.6 °F 87% 30.24 in 0.0 mi North - - N/A Fog Fog
10:55 AM 48.2 °F 44.6 °F 87% 30.24 in 0.0 mi North - - N/A Fog Fog
11:55 AM 51.8 °F 48.2 °F 88% 30.24 in 0.0 mi North - - N/A Fog Fog
12:55 PM 50.0 °F 48.2 °F 94% 30.24 in 0.0 mi North - - N/A Fog Fog
1:55 PM 51.8 °F 48.2 °F 88% 30.24 in 0.0 mi North - - N/A Fog Fog
2:00 PM 52 °F 48 °F 83%  in 0 mi SW 16.1 mph - -  
2:55 PM 51.8 °F 48.2 °F 88% 30.24 in 0.0 mi North - - N/A Fog Fog
3:55 PM 51.8 °F 50.0 °F 94% 30.21 in 0.0 mi North - - N/A Fog Fog
4:55 PM 51.8 °F 50.0 °F 94% 30.21 in 0.0 mi North - - N/A Fog Fog
5:55 PM 51.8 °F 50.0 °F 94% 30.21 in 0.0 mi North - - N/A Fog Fog
6:55 PM 51.8 °F 50.0 °F 94% 30.21 in 0.0 mi North - - N/A Fog Fog
7:55 PM 51.8 °F 48.2 °F 88% 30.21 in 0.0 mi North - - N/A Fog Fog
8:00 PM 51 °F 49 °F 88%  in 0 mi SW 15.0 mph - -  
8:55 PM 50.0 °F 48.2 °F 94% 30.21 in 0.0 mi North - - N/A Fog Fog
9:55 PM 50.0 °F 48.2 °F 94% 30.21 in 0.0 mi North - - N/A Fog Fog
10:55 PM 50.0 °F 48.2 °F 94% 30.21 in 0.0 mi North - - N/A Fog Fog
11:55 PM 50.0 °F 48.2 °F 94% 30.21 in 0.0 mi North - - N/A Fog Fog